Flag for Germany Weather past 2 weeks in Tuttlingen, Baden-Württemberg, Germany

Now
69 °F

Sunny.


Feels Like: 69 °F
Forecast: 43 / 65 °F
Wind: 3 mph from West

Location: Konstanz

Current Time: May 29, 2015 at 9:11:39 PM

Latest Report: May 29, 2015 at 9:00 PM


Visibility: 28 mi

Pressure: 29.81 "Hg

Humidity: 41%

Dew point: 44 °F

Location of TuttlingenLocation

Historic Weather in Tuttlingen — Graph

°F

Tuttlingen temperature yesterday

Maximum temperature yesterday: 72 °F (at 6:00 PM)
Minimum temperature yesterday: 44 °F (at 5:00 AM)
Average temperature yesterday: 58 °F

Past Weeks' High & Low Weather Summary

 TemperatureHumidityPressure
High75 °F (May 18, 5:00 PM)97% (May 15, 2:00 PM)30.33 "Hg (May 15, 2:00 PM)
Low44 °F (May 28, 5:00 AM)26% (May 28, 5:00 PM)29.70 "Hg (May 18, 7:00 PM)
Average56 °F74%30.06 "Hg
* Reported May 14 8:00 PM — May 29 8:00 PM, Tuttlingen, Weather by CustomWeather, © 2015

Note: Actual official high and low records may vary slightly from our data, if they occured in-between our weather recording intervals... More about our weather records

Advertising

Tuttlingen weather history for previous 24 hours

 ConditionsComfort  
Time TempWeatherWind HumidityBarometerVisibility
8:00 PM
Fri, May 29
72 °FPassing clouds.6 mph37%29.79 "Hg25 mi
7:00 PM73 °FSunny.7 mph40%29.77 "Hg17 mi
6:00 PM75 °FSunny.5 mph37%29.76 "Hg16 mi
5:00 PM75 °FScattered clouds.5 mph34%29.78 "Hg22 mi
4:00 PM75 °FScattered clouds.5 mph33%29.79 "Hg17 mi
3:00 PM74 °FPartly sunny.2 mph41%29.81 "Hg22 mi
2:00 PM73 °FOvercast.2 mph36%29.84 "Hg22 mi
1:00 PM71 °FOvercast.3 mph40%29.87 "Hg16 mi
12:00 PM70 °FOvercast.1 mph57%29.88 "Hg16 mi
11:00 AM65 °FOvercast.1 mph58%29.92 "Hg16 mi
10:00 AM60 °FOvercast.1 mph72%29.94 "Hg14 mi
9:00 AM59 °FPartly sunny.1 mph68%29.95 "Hg14 mi
8:00 AM56 °FPartly sunny.1 mph80%29.96 "Hg14 mi
7:00 AM52 °FScattered clouds.2 mph88%29.98 "Hg16 mi
6:00 AM50 °FScattered clouds.1 mph91%29.99 "Hg16 mi
5:00 AM51 °FClear.2 mph88%29.99 "Hg17 mi
4:00 AM53 °FClear.2 mph86%30.00 "Hg17 mi
3:00 AM56 °FPassing clouds.1 mph67%30.00 "Hg14 mi
11:00 PM
Thu, May 28
61 °FPassing clouds.2 mph56%30.00 "Hg25 mi
10:00 PM62 °FClear.2 mph54%29.99 "Hg25 mi
9:00 PM65 °FSunny.3 mph50%29.97 "Hg28 mi
Weather by CustomWeather, © 2015

See weather overviewHow to use our weather pages